Humidity-temperature Sensor

Selected Measurement Type: Relative Humidity

 
Relative Humidity [%]     6 entries per hour
Showing data from 12/9/2016 (00:00:00 Z) to 12/8/2016 (00:01:00 Z)
Previous Next [ Day | 3-Days | 7-Days ]
First Last
Prev [ Day | 3-Days | 7-Days ] Next
First Last

Start Time:     :
End Time:     :     
Time (in GMT) :00 :50 :40 :30 :20 :10
Previous Next [ Day | 3-Days | 7-Days ]
First Last
Prev [ Day | 3-Days | 7-Days ] Next
First Last


123 => good data
MM => data is determined as missing
-- => data not received/configured
Back to Top Back to Top
12/9/2016 00:00 to 23:10 80.01 78.96 78.85 78.14 78.41 78.48
12/8/2016 23:00 to 22:10 78.20 78.27 79.30 79.82 81.48 83.06
12/8/2016 22:00 to 21:10 82.79 83.14 79.13 78.03 78.47 80.45
12/8/2016 21:00 to 20:10 80.87 81.76 83.56 85.31 82.58 82.30
12/8/2016 20:00 to 19:10 83.86 84.28 82.87 82.95 83.12 81.38
12/8/2016 19:00 to 18:10 81.63 80.77 81.76 82.43 82.68 83.56
12/8/2016 18:00 to 17:10 83.35 79.78 80.64 79.23 79.29 79.76
12/8/2016 17:00 to 16:10 81.73 80.58 80.47 79.82 81.82 80.14
12/8/2016 16:00 to 15:10 80.58 81.06 81.71 79.04 79.88 80.33
12/8/2016 15:00 to 14:10 82.28 79.36 78.98 80.49 78.27 79.84
12/8/2016 14:00 to 13:10 80.03 80.94 81.19 80.94 79.76 79.86
12/8/2016 13:00 to 12:10 80.16 78.87 79.84 80.32 81.88 82.15
12/8/2016 12:00 to 11:10 82.20 81.40 80.96 81.57 80.35 79.13
12/8/2016 11:00 to 10:10 79.00 79.57 80.01 79.44 78.64 80.83
12/8/2016 10:00 to 9:10 80.39 80.70 81.78 81.35 81.52 81.44
12/8/2016 09:00 to 8:10 81.82 81.94 81.50 80.77 82.20 81.36
12/8/2016 08:00 to 7:10 81.21 82.37 81.73 81.82 80.89 80.96
12/8/2016 07:00 to 6:10 80.93 80.35 78.92 79.57 80.70 79.44
12/8/2016 06:00 to 5:10 80.03 78.41 78.66 79.04 79.38 79.04
12/8/2016 05:00 to 4:10 78.79 78.73 78.62 77.80 77.93 77.72
12/8/2016 04:00 to 3:10 76.65 77.05 76.92 77.05 77.68 76.79
12/8/2016 03:00 to 2:10 77.13 77.59 77.47 77.34 77.63 78.05
12/8/2016 02:00 to 1:10 77.86 78.16 78.18 77.97 80.11 79.67
12/8/2016 01:00 to 0:10 79.51 79.44 79.08 78.16 77.05 76.65